TIME,DELAY(SENSOR),PRES,T(CTD),SAL,OXYGEN,RAWTEMP,T(OPTODE),TCPHASE,FLUOR,BETA(BETA700),BETA(BETA412),BETA(BETA440),CDOM,C(CSC),ED(ED411.90),ED(ED443.80),ED(ED489.40),ED(ED554.70),LU(LU412.20),LU(LU443.80),LU(LU489.40),LU(LU555.00),COMP,TILTX,TILTX(TILTY),CHECK
1349018498,5803,497.2900085449219000,17.3603992462158200,36.4361991882324200,227.5798950195312500,190.5523986816406200,17.3690795898437500,32.1534500122070300,49,105,82,82,64,11975,2147488557,2147763913,2147558994,2147795648,2147311104,2147475684,2147712923,2148243593,415,7,12,15879
1349018625,5806,485.7799987792969000,17.4838008880615230,36.4592018127441400,229.4785003662109400,186.8798065185547000,17.4808197021484380,32.0081214904785160,50,107,82,83,64,11978,2147485248,2147763785,2147557577,2147796388,2147317138,2147478281,2147708032,2148246052,601,7,13,33689
1349018740,5803,475.4500122070312500,17.5674991607666000,36.4762001037597660,231.1725006103515600,184.1170043945312500,17.5648994445800780,31.8867607116699220,50,105,81,84,64,11982,2147485092,2147767414,2147559030,2147794166,2147319433,2147477248,2147711058,2148240256,370,7,12,44290
1349018869,5806,463.8800048828125000,17.6347999572753900,36.4892005920410160,232.2902069091797000,181.7259063720703000,17.6376590728759770,31.7992496490478500,50,105,82,82,64,11984,2147488393,2147764214,2147558006,2147791689,2147315757,2147476022,2147711433,2148242413,98,7,13,51978
1349018984,5803,453.7200012207031000,17.7075996398925780,36.5026016235351560,232.9846038818359400,179.3921966552734400,17.7086906433105470,31.7336902618408200,50,105,81,82,64,11989,2147486829,2147762441,2147556928,2147791908,2147311332,2147474148,2147710125,2148245110,3036,7,13,46686
1349019113,5803,442.3500061035156000,17.7859001159667970,36.5199012756347660,235.1849975585937500,176.8650970458984400,17.7856197357177730,31.5929203033447270,49,105,82,83,65,11993,2147489481,2147761883,2147559689,2147795492,2147318162,2147476004,2147707154,2148242852,1941,7,13,32977
1349019240,5804,431.2000122070312500,17.8430004119873050,36.5298995971679700,236.7729034423828000,175.0137939453125000,17.8419704437255860,31.4917793273925780,49,106,82,82,65,11993,2147486290,2147762678,2147558948,2147793508,2147315602,2147481005,2147711954,2148240100,1236,7,13,6595
1349019367,5805,420.1099853515625000,17.9099998474121100,36.5402984619140600,236.9506988525390600,172.9597015380859400,17.9045104980468750,31.4555702209472660,49,105,82,82,65,11999,2147486381,2147763757,2147559040,2147790701,2147314230,2147476269,2147712155,2148240585,571,7,12,55583
1349019496,5803,409.0000000000000000,17.9479999542236330,36.5466003417968750,237.3777008056640600,171.6800994873047000,17.9434700012207030,31.4177703857421880,50,106,83,84,64,12001,2147487040,2147760393,2147560118,2147794825,2147304960,2147480493,2147708873,2148242880,3051,7,13,54391
1349019623,5803,398.3099975585937500,17.9703006744384770,36.5481986999511700,237.2675933837890600,170.8442993164062500,17.9689197540283200,31.4120101928710940,50,107,82,83,63,12004,2147489298,2147763803,2147561426,2147790610,2147319021,2147479296,2147704822,2148242587,1660,7,13,48296
1349019752,5804,387.5299987792969000,18.0224990844726560,36.5558013916015600,236.4878997802734400,169.1439056396484400,18.0207004547119140,31.4262104034423830,50,106,82,83,64,12008,2147488219,2147758848,2147561024,2147794029,2147305069,2147477467,2147707309,2148243483,1250,6,12,30792
1349019891,5804,376.0499877929687500,18.0778999328613280,36.5633010864257800,236.2070007324218800,167.3610992431640600,18.0749893188476560,31.4155597686767580,50,106,82,83,63,12011,2147487469,2147765750,2147559250,2147792804,2147315072,2147475364,2147711908,2148244169,976,7,12,48329
1349020018,5804,365.9100036621094000,18.1270999908447270,36.5703010559082000,235.9790954589843800,165.6566009521484400,18.1269092559814450,31.4035091400146500,50,105,82,83,64,12014,2147492544,2147762532,2147561883,2147793728,2147313700,2147478555,2147709577,2148243684,788,7,13,57430
1349020159,5802,354.9700012207031000,18.1604003906250000,36.5738983154296900,235.7297973632812500,164.6269073486328000,18.1582698822021500,31.4017200469970700,50,106,82,84,64,12017,2147491446,2147763986,2147562550,2147791744,2147309010,2147478710,2147712192,2148240886,3582,7,12,9822
1349020310,5805,343.5100097656250000,18.2117996215820300,36.5798988342285160,235.4010009765625000,162.9320068359375000,18.2098999023437500,31.3946399688720700,50,106,82,83,64,12019,2147487396,2147765101,2147566848,2147792502,2147308032,2147477979,2147712923,2148241298,3163,7,12,34358
1349020445,5805,331.6600036621094000,18.2707004547119140,36.5862007141113300,234.8265075683593800,160.8871002197265600,18.2721900939941400,31.3949394226074220,50,109,81,83,64,12027,2147489170,2147765549,2147568539,2147789037,2147315510,2147479414,2147712283,2148244736,2756,7,12,18068
1349020548,5801,321.2099914550781000,18.3372001647949220,36.5920982360839840,233.6181030273437500,158.7622070312500000,18.3369293212890620,31.4246292114257800,50,108,82,83,63,12026,2147491117,2147766409,2147572288,2147790134,2147313874,2147481280,2147716845,2148242496,1837,8,12,50613
1349020663,5804,309.3900146484375000,18.4365997314453120,36.6003990173339840,231.9967956542968800,155.4459991455078000,18.4379901885986330,31.4586296081542970,50,108,81,82,64,12030,2147489325,2147773622,2147579190,2147788278,2147309714,2147484068,2147720969,2148242825,1871,7,12,57235
1349020780,5802,297.2999877929687500,18.5226993560791000,36.6049995422363300,230.3986053466797000,152.7998962402343800,18.5186405181884770,31.5014801025390620,50,107,82,84,65,12033,2147493202,2147774198,2147589476,2147789622,2147300278,2147483574,2147725302,2148239332,893,7,13,43065
1349020895,5804,285.1099853515625000,18.6100997924804700,36.6100997924804700,229.1748046875000000,149.4331054687500000,18.6212692260742200,31.5164604187011720,50,109,83,84,63,12038,2147490285,2147778166,2147599177,2147789686,2147302518,2147490980,2147735277,2148244544,358,7,12,51789
1349020998,5802,274.2300109863281000,18.7341995239257800,36.6148986816406250,228.3392028808593800,145.7920989990234400,18.7322902679443360,31.5089702606201170,50,108,81,83,65,12041,2147497444,2147784740,2147613321,2147789403,2147303698,2147494482,2147740772,2148245074,2904,7,13,36407
1349021117,5804,263.1799926757812500,18.8784008026123050,36.6204986572265600,227.8750000000000000,141.1840972900390600,18.8728408813476560,31.4702396392822270,50,109,82,84,64,12041,2147493458,2147784356,2147633636,2147792237,2147306276,2147493540,2147746998,2148241645,2693,7,12,15341
1349021256,5802,252.6600036621093800,18.9811000823974600,36.6190986633300800,228.5838928222656200,137.5424041748047000,18.9839401245117200,31.3865108489990230,50,107,82,85,65,12042,2147491922,2147801627,2147661714,2147790592,2147301284,2147502710,2147765238,2148241536,1960,7,13,17074
1349021423,5803,239.0599975585937500,19.0720005035400400,36.5996017456054700,234.1524047851562500,134.6446990966797000,19.0723800659179700,31.0775794982910160,50,106,82,83,64,12050,2147499684,2147823753,2147719122,2147786550,2147316114,2147513115,2147798427,2148242706,981,7,12,32443
1349021538,5804,228.1600036621093800,19.1350002288818360,36.5844993591308600,240.9857940673828000,132.5606994628906200,19.1359901428222660,30.7283191680908200,50,104,82,83,63,12051,2147500004,2147851483,2147783058,2147789019,2147308105,2147536128,2147839177,2148246025,706,8,12,24548
1349021653,5805,217.3399963378906200,19.2054996490478500,36.5810012817382800,245.2321929931640600,130.3267059326172000,19.2041893005371100,30.5050506591796880,50,107,81,81,63,12050,2147506468,2147866614,2147807451,2147790683,2147322560,2147547620,2147852397,2148246765,278,7,12,30166
1349021782,5804,205.8000030517578000,19.2812004089355470,36.5820007324218750,246.9871978759765600,127.9383010864257800,19.2771205902099600,30.3945007324218750,49,106,82,82,63,12051,2147513956,2147927122,2147947190,2147786614,2147318939,2147592320,2147934427,2148253001,3385,7,12,55236
1349021873,5803,197.7799987792968800,19.3302001953125000,36.5872001647949200,246.9550018310547000,126.4712982177734400,19.3219203948974600,30.3768901824951170,50,107,82,83,62,12052,2147521974,2147979126,2148050678,2147790390,2147324288,2147624795,2147993764,2148256576,100,7,12,38992
1349021928,5802,192.9799957275390600,19.3554000854492200,36.5848007202148440,246.7341003417968800,125.4850997924804700,19.3520393371582030,30.3739795684814450,50,108,82,82,63,12053,2147534354,2148023872,2148160384,2147793398,2147328969,2147659172,2148058130,2148259291,306,7,12,47976
1349021983,5804,188.2500000000000000,19.3617000579834000,36.5806999206543000,247.0032043457031200,125.3993988037109400,19.3546600341796880,30.3608398437500000,50,107,82,83,62,12052,2147539968,2148066230,2148241325,2147788909,2147330962,2147687094,2148103378,2148260443,495,7,12,55224
1349022057,5804,182.2400054931640600,19.3894996643066400,36.5783004760742200,248.5693969726562500,124.0326004028320300,19.3964099884033200,30.2731494903564450,50,107,82,83,62,12052,2147532489,2147986880,2148025206,2147789458,2147327433,2147635940,2147997997,2148255232,647,7,12,47014
1349022112,5804,178.1399993896484400,19.4290008544921880,36.5848007202148440,248.0962066650390600,123.0474014282226600,19.4265098571777340,30.2815093994140620,50,108,81,84,62,12052,2147549440,2148032932,2148121563,2147791661,2147338020,2147665801,2148053760,2148260873,694,7,12,49129
1349022167,5804,174.1499938964843800,19.4468994140625000,36.5871009826660160,247.7342987060547000,122.1019973754882800,19.4553909301757800,30.2851390838623050,50,108,81,83,63,12051,2147580918,2148212763,2148522020,2147789668,2147348169,2147780388,2148269211,2148270793,528,7,12,28498
1349022234,5803,169.3600006103515600,19.4974994659423830,36.5894012451171900,247.2406005859375000,120.8037033081054700,19.4950599670410160,30.2904701232910160,52,108,79,83,62,12051,2147599177,2148281289,2148629577,2147790345,2147361709,2147821851,2148328100,2148275995,58,7,12,14690
1349022289,5801,165.5099945068359400,19.5189990997314450,36.5904998779296900,247.6994934082031200,119.9868011474609400,19.5200195312500000,30.2593498229980470,53,108,83,84,62,12052,2147610980,2148307474,2148670784,2147789933,2147367067,2147833709,2148345984,2148277705,3575,7,12,22167
1349022367,5804,160.5200042724609400,19.5443000793457030,36.5896987915039060,248.1685943603515600,119.2796020507812500,19.5416393280029300,30.2291603088378900,53,114,81,84,62,12049,2147629714,2148341833,2148705792,2147794075,2147376804,2147850678,2148359853,2148280612,3272,7,12,4745
1349022446,5801,156.1399993896484400,19.5970993041992200,36.5933990478515600,248.4067993164062500,117.2617034912109400,19.6033096313476560,30.1925392150878900,55,121,82,85,63,12045,2147690002,2148552832,2149091830,2147793700,2147402450,2147977106,2148574464,2148295113,3082,7,12,8811
1349022513,5803,152.5399932861328000,19.6445999145507800,36.5970001220703100,248.8081970214843800,115.8962020874023400,19.6450500488281250,30.1568508148193360,58,117,84,84,62,12044,2147739986,2148694509,2149342985,2147794870,2147418368,2148059382,2148712594,2148303067,2577,7,12,740
1349022592,5803,148.3500061035156200,19.6695003509521500,36.6002006530761700,248.9152069091797000,115.1218032836914000,19.6687297821044920,30.1422691345214840,59,114,82,85,63,12042,2147810441,2148917046,2149723940,2147796169,2147453293,2148175204,2148910793,2148316425,2016,7,12,62928
1349022673,5804,144.0599975585937500,19.7439994812011720,36.6054000854492200,248.8600006103515600,112.6959991455078100,19.7429008483886720,30.1131992340087900,60,116,83,85,63,12039,2147897517,2149110235,2150033718,2147798070,2147488804,2148284736,2149081526,2148329883,1999,7,13,21307
1349022740,5805,140.6900024414062500,19.8488006591796880,36.6246986389160160,247.6280975341797000,109.4055023193359400,19.8435401916503900,30.1253700256347660,63,115,84,84,63,12036,2147947894,2149213650,2150190217,2147800448,2147513243,2148337700,2149146523,2148335213,2558,7,12,18839
1349022831,5802,136.3200073242187500,19.9706993103027340,36.6436004638671900,243.9004974365234400,105.3707962036132800,19.9669895172119140,30.2403297424316400,65,116,84,85,63,12031,2148056173,2149418294,2150459364,2147804022,2147553179,2148438098,2149269933,2148345508,3188,7,13,8090
1349022910,5802,132.6799926757812500,20.0601997375488280,36.6517982482910160,241.6721954345703000,102.5874023437500000,20.0521793365478500,30.3055191040039060,68,119,82,85,64,12023,2148260672,2149931510,2151308544,2147811803,2147634358,2148710345,2149693293,2148374208,3357,7,12,8262
1349023003,5805,128.5099945068359400,20.1263008117675780,36.6503982543945300,241.8594970703125000,100.6822967529296900,20.1105003356933600,30.2722492218017580,76,128,84,87,64,12012,2148406930,2150145737,2151569874,2147815040,2147691328,2148792237,2149782957,2148385910,238,7,13,2029
1349023094,5804,124.5000000000000000,20.2099990844726560,36.6380004882812500,244.3869018554687500,97.5897979736328100,20.2052097320556640,30.1177997589111330,83,128,82,86,63,12000,2148677156,2150666468,2152318454,2147821138,2147792539,2149022893,2150115629,2148410989,365,7,13,44139
1349023185,5802,120.6399993896484400,20.2793998718261720,36.6470985412597660,245.8273010253906200,95.8384170532226600,20.2588500976562500,30.0306491851806640,84,129,83,85,64,11995,2148501467,2150028251,2151074688,2147812745,2147724854,2148663826,2149459017,2148369828,513,7,13,27578
1349023278,5805,116.7900009155273400,20.3356990814209000,36.6445007324218750,246.6959991455078000,93.5723876953125000,20.3282794952392580,29.9627895355224600,93,129,84,87,62,11987,2148314934,2149441106,2149977901,2147805824,2147640795,2148329069,2148881142,2148325805,506,7,12,32784
1349023381,5802,112.7200012207031200,20.3843994140625000,36.6422004699707000,247.1293945312500000,91.9064788818359400,20.3793296813964840,29.9221591949462900,97,133,83,86,63,11977,2149044553,2150865993,2152069906,2147828992,2147927058,2148987757,2149833846,2148404141,3494,7,12,64436
1349023484,5803,109.0199966430664000,20.5156993865966800,36.6613006591796900,246.5032043457031200,87.8517990112304700,20.5036296844482420,29.8980693817138670,106,135,84,86,62,11966,2149732928,2152082669,2153730825,2147857060,2148167158,2149483821,2150525705,2148461732,2822,7,12,42949
1349023608,5803,104.9000015258789000,20.7243995666503900,36.6689987182617200,245.4248962402343800,81.0818481445312500,20.7112903594970700,29.8592491149902340,115,140,85,88,63,11950,2150653522,2153598336,2155662774,2147890112,2148482587,2150043254,2151279049,2148530971,2353,7,12,47017
1349023711,5806,100.8799972534179700,20.8243007659912100,36.6575012207031250,246.3892974853515600,77.5404434204101600,20.8199901580810550,29.7711200714111330,120,140,86,88,63,11935,2152343104,2156385133,2159147410,2147946797,2149035693,2150994230,2152583881,2148655049,1499,7,12,58819
1349023766,5804,99.0199966430664000,20.8777008056640620,36.6631011962890600,252.1777038574218800,75.8188705444336000,20.8728504180908200,29.4959297180175780,121,135,86,87,63,11940,2154251172,2159701101,2163475190,2148014336,2149704100,2152241069,2154272795,2148812105,960,7,12,8439
1349023833,5803,96.8000030517578100,20.9487991333007800,36.6669998168945300,253.1790924072265600,73.5533294677734400,20.9424190521240230,29.4241409301757800,125,138,84,87,62,11934,2156688064,2163722706,2168359488,2148103753,2150517888,2153685933,2156082386,2148986816,542,8,13,745
1349023911,5805,93.7500000000000000,21.1678009033203120,36.6617012023925800,261.2974853515625000,67.1875762939453100,21.1380405426025400,29.0024604797363280,84,131,84,88,60,11942,2159105408,2167106697,2171707026,2148187401,2151413613,2154936722,2157436114,2149138139,128,7,12,32937
1349023966,5803,91.1399993896484400,21.3285007476806640,36.6627998352050800,270.9713134765625000,61.3733711242675800,21.3168392181396500,28.5395202636718750,81,129,84,89,60,11942,2161430153,2170213229,2174815168,2148281627,2152368448,2156384018,2158975597,2149284662,3228,7,12,15727
1349024021,5803,88.5400009155273400,21.3784999847412100,36.6543006896972660,275.1304016113281000,59.5921897888183600,21.3716506958007800,28.3548698425292970,78,132,85,86,59,11953,2164121618,2173810953,2178512420,2148391652,2153536265,2158081197,2160696859,2149460781,3393,7,13,42777
1349024076,5803,85.9700012207031200,21.4979991912841800,36.6390991210937500,280.2351989746094000,55.6747093200683600,21.4922409057617200,28.1108207702636720,79,131,84,88,59,11949,2165930806,2175844498,2180243867,2148480137,2154479122,2159318674,2161791990,2149575186,352,7,12,28167
1349024131,5803,83.5800018310546900,21.6527004241943360,36.6523017883300800,281.7919921875000000,51.6887817382812500,21.6149997711181640,28.0032596588134770,76,132,84,87,59,11946,2165135323,2173732818,2176915419,2148453056,2154353883,2158696548,2160571099,2149475401,439,8,12,51927
1349024186,5804,81.4899978637695300,21.7269001007080080,36.6498985290527340,283.3746948242187500,49.1174812316894500,21.6942291259765620,27.9124908447265620,79,129,83,87,59,11952,2172868461,2185065609,2190063707,2148843044,2157700626,2163940443,2166623616,2150072713,565,7,12,62669
1349024243,5804,79.7500000000000000,21.8348999023437500,36.6506996154785160,284.1368103027344000,44.9713401794433600,21.8220596313476560,27.8334407806396500,78,130,84,88,56,11946,2175646646,2188512027,2193581878,2149005458,2159046747,2165770267,2168437366,2150264000,769,7,12,26750
1349024310,5804,78.4300003051757800,21.9524993896484380,36.6562004089355500,284.9692077636719000,41.1671485900878900,21.9394092559814450,27.7561492919921880,78,128,83,89,59,11948,2171393161,2181425197,2184641709,2148795739,2157470784,2162910070,2164796544,2149913984,968,6,12,54509
1349024521,5809,76.6699981689453100,22.0848999023437500,36.6650009155273440,285.1199035644531000,36.5948715209960940,22.0805492401123050,27.6948890686035160,75,126,85,88,58,11959,2169593106,2177890715,2179675712,2148688877,2156940781,2161553828,2162634614,2149708626,24,7,12,1115
1349024635,5804,73.7200012207031200,22.3292999267578120,36.6652984619140600,284.5888977050781000,28.9290599822998050,22.3174095153808600,27.6212997436523440,73,131,85,88,59,11955,2174803894,2183706779,2185122651,2148978843,2159680000,2164983314,2165818907,2150034194,2655,7,12,19430
1349024690,5801,71.7399978637695300,22.5137996673584000,36.6601982116699200,283.5286865234375000,23.1589107513427730,22.4958896636962900,27.5905704498291000,74,129,85,91,58,11934,2184129545,2195580891,2197525577,2149517092,2164265938,2171112009,2171909129,2150672585,2402,7,12,18386
1349024745,5803,70.0999984741211000,22.7241992950439450,36.6763992309570300,283.1072998046875000,21.2546005249023440,22.5548305511474600,27.5829696655273440,72,132,85,91,58,11933,2184187648,2195081590,2196588205,2149559113,2164595273,2171240621,2171769005,2150667739,2217,7,12,57161
1349024848,5801,68.7300033569336000,22.8381996154785160,36.6893005371093750,282.3710021972656000,14.2048397064208980,22.7731990814209000,27.5250892639160160,73,129,84,89,60,11931,2185888969,2196895926,2198349321,2149717723,2165949824,2172863104,2173130569,2150799661,2661,7,12,64303
1349024986,5801,65.9800033569336000,23.0876007080078120,36.7005996704101560,282.5667114257812500,5.2009201049804690,23.0524997711181640,27.4089107513427730,70,133,85,89,57,11922,2193102290,2204657152,2205369389,2150263488,2171009929,2178439021,2177526994,2151269741,3307,8,12,28860
1349025053,5805,64.1699981689453100,23.2388992309570300,36.6817016601562500,282.4454040527344000,1.3560179471969604,23.1718997955322270,27.3670291900634770,68,130,86,89,59,11918,2198936832,2211391725,2212185435,2150761481,2174935917,2183115702,2181656960,2151707657,3209,8,12,21071
1349025156,5804,62.5999984741210940,23.4472007751464840,36.6515007019043000,281.5685119628906000,-3.9319400787353516,23.3362598419189450,27.3359203338623050,66,130,86,89,57,11913,2214350473,2230285924,2231625600,2151891346,2183780982,2194241627,2192027776,2152806884,3419,8,12,2455
1349025270,5804,60.1899986267089840,23.9489002227783200,36.7084007263183600,279.1134948730469000,-22.2381801605224600,23.9065494537353500,27.2071800231933600,65,135,86,90,55,11905,2203467465,2214352402,2213409289,2151276041,2179853275,2187515693,2184309376,2152073069,185,7,12,26874
1349025361,5803,58.7000007629394500,24.1643009185791000,36.7364997863769500,279.5206909179687500,-29.6248703002929700,24.1372604370117200,27.1033592224121100,63,145,83,89,55,11900,2207071853,2218349430,2217439177,2151659885,2183174619,2191039652,2187090267,2152390034,245,7,12,53057
1349025571,5802,55.7700004577636700,24.4598999023437500,36.6706008911132800,278.6784057617187500,-39.3068084716796900,24.4402008056640620,27.0189895629882800,63,136,86,90,57,11882,2217451291,2228773632,2227232868,2152882459,2192261915,2200334080,2194500370,2153267739,2353,7,12,24136
1349025712,5805,52.6800003051757800,24.6184997558593750,36.6327018737793000,276.8122863769531000,-44.5797195434570300,24.6054496765136720,27.0255508422851560,63,131,85,89,58,11873,2209488201,2218093229,2215906002,2152500635,2188988068,2194984164,2188571364,2152705408,1201,7,12,33519
1349025745,5803,52.5699996948242200,24.6653995513916000,36.6244010925293000,276.4888916015625000,-46.1396102905273440,24.6543693542480470,27.0189800262451170,63,132,85,88,60,11829,2213730925,2223196068,2221180873,2152900845,2192578688,2199386121,2192552676,2153111414,1076,7,12,18566
1349025911,5806,50.9000015258789060,24.9230995178222660,36.4752998352050800,263.8815002441406000,-53.4270706176757800,24.8831501007080080,27.4170703887939450,61,133,83,89,57,11863,2210817764,2218126454,2215030171,2152786861,2191658724,2197129993,2189436050,2152832091,574,7,12,17979
1349026827,5805,48.9300003051757800,26.4573001861572270,36.4152984619140600,249.6564941406250000,-102.2608032226562500,26.4264602661132800,27.4048805236816400,59,136,85,90,56,11755,2202178587,2205236461,2199983707,2151806317,2185429906,2188432932,2180713910,2151924260,3552,8,12,27556
1349027113,5802,46.6699981689453100,26.8705005645751950,36.4474983215332000,244.7584075927734400,-115.5883026123046900,26.8509998321533200,27.4497509002685550,59,134,85,89,55,11759,2228054070,2234136694,2228991826,2155014153,2206806674,2211534710,2199897581,2154280009,661,8,12,13907
1349027211,5803,44.7799987792968750,26.9374008178710940,36.4401016235351560,242.2151031494140600,-118.6466979980468800,26.9486293792724600,27.5213203430175780,59,132,84,89,55,11741,2257567872,2266972790,2262235510,2158856109,2233067373,2239819200,2223399936,2157136402,1021,8,12,46834
1349027320,5802,42.9000015258789060,27.0212001800537100,36.4252014160156250,241.6264038085937500,-120.9395980834961000,27.0218791961669920,27.5188102722167970,59,128,84,89,54,11718,2272760237,2283113910,2278739995,2161678619,2248991332,2255418532,2235278262,2158817782,1109,8,11,61096
1349027419,5804,40.6899986267089840,27.0284004211425780,36.4011001586914060,240.1826934814453000,-121.6921997070312500,27.0459403991699220,27.5720100402832030,57,129,82,88,58,11706,2274277348,2283122953,2278801316,2163435620,2257675922,2262181906,2239425078,2159529856,1346,8,11,7421
1349027473,5801,38.7700004577636700,27.0330009460449220,36.3936004638671900,239.5467987060547000,-121.5967025756836000,27.0428791046142580,27.6008701324462900,56,128,84,89,52,11691,2275512841,2283829147,2280121188,2165127954,2263404077,2266356534,2241588324,2160094308,1481,8,12,43177
1349027527,5800,36.8800010681152340,27.0354995727539060,36.3902015686035160,239.1952972412109400,-121.7303009033203100,27.0471591949462900,27.6144695281982420,56,128,82,90,56,11635,2265629961,2271825865,2267877504,2164644836,2259150701,2259589421,2234433371,2159339035,1263,8,12,56338
1349027592,5805,34.5600013732910160,26.9817008972167970,36.3233985900878900,239.3244934082031200,-119.8040008544921900,26.9855995178222660,27.6322498321533200,55,126,83,89,57,11661,2256785380,2260941805,2256714852,2164584475,2255811035,2253792594,2228256859,2158862601,1204,7,11,47583